| time (UTC) | temp F | wind direction | speed MPH | gust MPH | rain 1hr in | rain 24hr in | rain mn in | humidity % | barometer mb |
| 20260903213156 | 99 | 96 | 2.0 | 9.0 | 0.00 | 0.00 | 0.00 | 43 | 1011.5 |
| 20260903212656 | 99 | 60 | 2.0 | 10.0 | 0.00 | 0.00 | 0.00 | 43 | 1011.6 |
| 20260903212154 | 99 | 116 | 2.0 | 10.0 | 0.00 | 0.00 | 0.00 | 43 | 1011.8 |
| 20260903211919 | 99 | 155 | 1.0 | 8.0 | 0.00 | 0.00 | 0.00 | 43 | 1011.8 |
| 20260903211415 | 98 | 155 | 2.0 | 8.0 | 0.00 | 0.00 | 0.00 | 44 | 1011.8 |
| 20260903210637 | 98 | 157 | 3.0 | 9.0 | 0.00 | 0.00 | 0.00 | 44 | 1011.9 |
| 20260903210130 | 98 | 133 | 4.0 | 9.0 | 0.00 | 0.00 | 0.00 | 44 | 1012.1 |
| 20260903205625 | 98 | 170 | 3.0 | 8.0 | 0.00 | 0.00 | 0.00 | 44 | 1012.1 |
| 20260903205119 | 98 | 126 | 2.0 | 5.0 | 0.00 | 0.00 | 0.00 | 44 | 1012.1 |
| 20260903204844 | 98 | 145 | 2.0 | 5.0 | 0.00 | 0.00 | 0.00 | 45 | 1012.4 |
| 20260903204107 | 98 | 117 | 2.0 | 5.0 | 0.00 | 0.00 | 0.00 | 43 | 1012.2 |
| 20260903203601 | 99 | 117 | 2.0 | 6.0 | 0.00 | 0.00 | 0.00 | 43 | 1012.5 |
| 20260903203055 | 99 | 252 | 3.0 | 8.0 | 0.00 | 0.00 | 0.00 | 43 | 1012.6 |
| 20260903202549 | 98 | 251 | 3.0 | 8.0 | 0.00 | 0.00 | 0.00 | 44 | 1012.6 |
| 20260903202043 | 98 | 147 | 2.0 | 7.0 | 0.00 | 0.00 | 0.00 | 45 | 1012.5 |
| 20260903201537 | 98 | 161 | 2.0 | 7.0 | 0.00 | 0.00 | 0.00 | 44 | 1012.7 |
| 20260903201031 | 98 | 163 | 2.0 | 6.0 | 0.00 | 0.00 | 0.00 | 46 | 1012.7 |
| 20260903200524 | 98 | 113 | 2.0 | 7.0 | 0.00 | 0.00 | 0.00 | 47 | 1012.7 |
| 20260903200019 | 98 | 179 | 2.0 | 7.0 | 0.00 | 0.00 | 0.00 | 46 | 1012.8 |
| 20260903195744 | 98 | 108 | 2.0 | 7.0 | 0.00 | 0.00 | 0.00 | 47 | 1012.7 |
| 20260903195007 | 98 | 101 | 3.0 | 9.0 | 0.00 | 0.00 | 0.00 | 48 | 1012.9 |
| 20260903194501 | 97 | 112 | 3.0 | 9.0 | 0.00 | 0.00 | 0.00 | 49 | 1012.9 |
| 20260903193955 | 97 | 52 | 2.0 | 7.0 | 0.00 | 0.00 | 0.00 | 49 | 1013.0 |
| 20260903193449 | 97 | 152 | 3.0 | 7.0 | 0.00 | 0.00 | 0.00 | 49 | 1013.1 |
| 20260903192943 | 97 | 161 | 3.0 | 7.0 | 0.00 | 0.00 | 0.00 | 48 | 1013.2 |
| 20260903192708 | 96 | 101 | 2.0 | 7.0 | 0.00 | 0.00 | 0.00 | 51 | 1013.2 |
| 20260903192205 | 96 | 159 | 2.0 | 9.0 | 0.00 | 0.00 | 0.00 | 51 | 1013.3 |
| 20260903191435 | 96 | 130 | 2.0 | 9.0 | 0.00 | 0.00 | 0.00 | 51 | 1013.4 |
| 20260903190935 | 96 | 196 | 3.0 | 11.0 | 0.00 | 0.00 | 0.00 | 53 | 1013.5 |
| 20260903190435 | 96 | 138 | 2.0 | 11.0 | 0.00 | 0.00 | 0.00 | 52 | 1013.6 |
| 20260903185933 | 95 | 156 | 2.0 | 8.0 | 0.00 | 0.00 | 0.00 | 52 | 1013.7 |
| 20260903185433 | 95 | 151 | 3.0 | 8.0 | 0.00 | 0.00 | 0.00 | 53 | 1013.7 |
| 20260903184936 | 95 | 111 | 3.0 | 7.0 | 0.00 | 0.00 | 0.00 | 52 | 1013.9 |
| 20260903184431 | 95 | 92 | 2.0 | 9.0 | 0.00 | 0.00 | 0.00 | 52 | 1014.0 |
| 20260903183931 | 95 | 182 | 2.0 | 9.0 | 0.00 | 0.00 | 0.00 | 53 | 1014.0 |
| 20260903183701 | 94 | 213 | 3.0 | 10.0 | 0.00 | 0.00 | 0.00 | 54 | 1014.0 |
| 20260903182927 | 94 | 167 | 3.0 | 10.0 | 0.00 | 0.00 | 0.00 | 55 | 1014.2 |
| 20260903182425 | 94 | 154 | 2.0 | 7.0 | 0.00 | 0.00 | 0.00 | 55 | 1014.3 |
| 20260903181925 | 94 | 188 | 3.0 | 9.0 | 0.00 | 0.00 | 0.00 | 55 | 1014.4 |
| 20260903181425 | 94 | 161 | 3.0 | 9.0 | 0.00 | 0.00 | 0.00 | 57 | 1014.5 |
| 20260903180922 | 94 | 228 | 2.0 | 8.0 | 0.00 | 0.00 | 0.00 | 57 | 1014.5 |
| 20260903180423 | 94 | 173 | 3.0 | 10.0 | 0.00 | 0.00 | 0.00 | 57 | 1014.5 |
| 20260903175923 | 93 | 161 | 3.0 | 10.0 | 0.00 | 0.00 | 0.00 | 56 | 1014.7 |
| 20260903175420 | 93 | 150 | 3.0 | 10.0 | 0.00 | 0.00 | 0.00 | 58 | 1014.8 |
| 20260903174921 | 93 | 124 | 3.0 | 8.0 | 0.00 | 0.00 | 0.00 | 59 | 1014.8 |
| 20260903174421 | 93 | 193 | 3.0 | 8.0 | 0.00 | 0.00 | 0.00 | 59 | 1014.8 |
| 20260903174151 | 93 | 134 | 3.0 | 7.0 | 0.00 | 0.00 | 0.00 | 58 | 1014.9 |
| 20260903173423 | 92 | 150 | 3.0 | 7.0 | 0.00 | 0.00 | 0.00 | 58 | 1015.0 |
| 20260903172921 | 92 | 147 | 2.0 | 10.0 | 0.00 | 0.00 | 0.00 | 60 | 1015.0 |
| 20260903172421 | 92 | 204 | 2.0 | 10.0 | 0.00 | 0.00 | 0.00 | 61 | 1015.2 |
| 20260903171922 | 92 | 117 | 2.0 | 8.0 | 0.00 | 0.00 | 0.00 | 62 | 1015.2 |
| 20260903171421 | 92 | 196 | 2.0 | 6.0 | 0.00 | 0.00 | 0.00 | 62 | 1015.3 |
| 20260903171151 | 91 | 215 | 2.0 | 6.0 | 0.00 | 0.00 | 0.00 | 62 | 1015.3 |
| 20260903170651 | 91 | 235 | 2.0 | 7.0 | 0.00 | 0.00 | 0.00 | 61 | 1015.4 |
| 20260903165921 | 90 | 200 | 2.0 | 7.0 | 0.00 | 0.00 | 0.00 | 63 | 1015.5 |
| 20260903165421 | 90 | 197 | 3.0 | 8.0 | 0.00 | 0.00 | 0.00 | 65 | 1015.5 |
| 20260903164916 | 89 | 132 | 3.0 | 8.0 | 0.00 | 0.00 | 0.00 | 65 | 1015.6 |
| 20260903164649 | 89 | 203 | 3.0 | 7.0 | 0.00 | 0.00 | 0.00 | 65 | 1015.7 |
| 20260903163917 | 89 | 178 | 2.0 | 6.0 | 0.00 | 0.00 | 0.00 | 66 | 1015.6 |
| 20260903163417 | 89 | 240 | 2.0 | 7.0 | 0.00 | 0.00 | 0.00 | 69 | 1015.7 |
| 20260903162917 | 89 | 259 | 2.0 | 7.0 | 0.00 | 0.00 | 0.00 | 68 | 1015.7 |
| 20260903162417 | 89 | 200 | 2.0 | 7.0 | 0.00 | 0.00 | 0.00 | 67 | 1015.7 |
| 20260903161917 | 88 | 205 | 3.0 | 8.0 | 0.00 | 0.00 | 0.00 | 68 | 1015.7 |
| 20260903161417 | 88 | 146 | 3.0 | 10.0 | 0.00 | 0.00 | 0.00 | 70 | 1015.7 |
| 20260903160918 | 87 | 238 | 3.0 | 10.0 | 0.00 | 0.00 | 0.00 | 70 | 1015.7 |
| 20260903160412 | 87 | 169 | 2.0 | 8.0 | 0.00 | 0.00 | 0.00 | 71 | 1015.6 |
| 20260903155910 | 87 | 180 | 2.0 | 6.0 | 0.00 | 0.00 | 0.00 | 71 | 1015.6 |
| 20260903155411 | 87 | 202 | 2.0 | 6.0 | 0.00 | 0.00 | 0.00 | 70 | 1015.6 |
| 20260903154911 | 87 | 229 | 2.0 | 7.0 | 0.00 | 0.00 | 0.00 | 72 | 1015.6 |
| 20260903154411 | 87 | 165 | 2.0 | 7.0 | 0.00 | 0.00 | 0.00 | 72 | 1015.6 |
| 20260903153911 | 86 | 182 | 2.0 | 6.0 | 0.00 | 0.00 | 0.00 | 73 | 1015.7 |
| 20260903153411 | 85 | 187 | 2.0 | 8.0 | 0.00 | 0.00 | 0.00 | 74 | 1015.6 |
| 20260903152909 | 85 | 215 | 2.0 | 8.0 | 0.00 | 0.00 | 0.00 | 75 | 1015.7 |
| 20260903152409 | 85 | 238 | 2.0 | 6.0 | 0.00 | 0.00 | 0.00 | 75 | 1015.7 |
| 20260903151912 | 84 | 217 | 2.0 | 7.0 | 0.00 | 0.00 | 0.00 | 76 | 1015.7 |
| 20260903151406 | 84 | 204 | 2.0 | 7.0 | 0.00 | 0.00 | 0.00 | 77 | 1015.7 |
| 20260903150907 | 84 | 213 | 2.0 | 5.0 | 0.00 | 0.00 | 0.00 | 77 | 1015.6 |
| 20260903150407 | 84 | 213 | 1.0 | 6.0 | 0.00 | 0.00 | 0.00 | 77 | 1015.7 |
| 20260903145907 | 84 | 223 | 2.0 | 8.0 | 0.00 | 0.00 | 0.00 | 78 | 1015.7 |
| 20260903145407 | 83 | 182 | 3.0 | 8.0 | 0.00 | 0.00 | 0.00 | 78 | 1015.8 |
| 20260903144905 | 83 | 269 | 2.0 | 13.0 | 0.00 | 0.00 | 0.00 | 78 | 1015.7 |
| 20260903144404 | 83 | 219 | 2.0 | 13.0 | 0.00 | 0.00 | 0.00 | 79 | 1015.7 |
| 20260903143858 | 83 | 262 | 2.0 | 8.0 | 0.00 | 0.00 | 0.00 | 80 | 1015.7 |
| 20260903143352 | 83 | 244 | 2.0 | 8.0 | 0.00 | 0.00 | 0.00 | 80 | 1015.7 |
| 20260903143116 | 82 | 196 | 2.0 | 6.0 | 0.00 | 0.00 | 0.00 | 81 | 1015.7 |
| 20260903142340 | 82 | 213 | 1.0 | 5.0 | 0.00 | 0.00 | 0.00 | 81 | 1015.8 |
| 20260903141834 | 82 | 244 | 1.0 | 5.0 | 0.00 | 0.00 | 0.00 | 82 | 1015.8 |
| 20260903141328 | 81 | 248 | 2.0 | 7.0 | 0.00 | 0.00 | 0.00 | 82 | 1015.8 |
| 20260903140822 | 81 | 156 | 2.0 | 7.0 | 0.00 | 0.00 | 0.00 | 82 | 1015.8 |
| 20260903140315 | 81 | 174 | 2.0 | 10.0 | 0.00 | 0.00 | 0.00 | 84 | 1015.8 |
| 20260903135811 | 80 | 215 | 2.0 | 10.0 | 0.00 | 0.00 | 0.00 | 84 | 1015.8 |
| 20260903135306 | 80 | 208 | 2.0 | 6.0 | 0.00 | 0.00 | 0.00 | 85 | 1015.9 |
| 20260903135029 | 80 | 206 | 1.0 | 4.0 | 0.00 | 0.00 | 0.00 | 85 | 1016.0 |
| 20260903134252 | 80 | 216 | 1.0 | 5.0 | 0.00 | 0.00 | 0.00 | 86 | 1016.1 |
| 20260903133746 | 80 | 216 | 1.0 | 5.0 | 0.00 | 0.00 | 0.00 | 86 | 1016.0 |
| 20260903133240 | 80 | 242 | 1.0 | 5.0 | 0.00 | 0.00 | 0.00 | 86 | 1016.0 |
| 20260903132733 | 79 | 242 | 1.0 | 5.0 | 0.00 | 0.00 | 0.00 | 87 | 1016.0 |
| 20260903132500 | 79 | 181 | 1.0 | 4.0 | 0.00 | 0.00 | 0.00 | 87 | 1015.9 |
| 20260903131722 | 79 | 207 | 1.0 | 3.0 | 0.00 | 0.00 | 0.00 | 87 | 1015.9 |
| 20260903131447 | 79 | 210 | 1.0 | 4.0 | 0.00 | 0.00 | 0.00 | 88 | 1015.9 |
| 20260903130710 | 78 | 210 | 1.0 | 4.0 | 0.00 | 0.00 | 0.00 | 88 | 1015.9 |
| 20260903130204 | 78 | 212 | 1.0 | 3.0 | 0.00 | 0.00 | 0.00 | 88 | 1015.9 |
| 20260903125658 | 78 | 213 | 0.0 | 2.0 | 0.00 | 0.00 | 0.00 | 88 | 1015.8 |
| 20260903125152 | 78 | 213 | 0.0 | 2.0 | 0.00 | 0.00 | 0.00 | 88 | 1015.8 |
| 20260903124916 | 78 | 213 | 0.0 | 3.0 | 0.00 | 0.00 | 0.00 | 88 | 1015.6 |
| 20260903124140 | 78 | 213 | 0.0 | 3.0 | 0.00 | 0.00 | 0.00 | 89 | 1015.7 |
| 20260903123634 | 78 | 213 | 1.0 | 3.0 | 0.00 | 0.00 | 0.00 | 88 | 1015.6 |
| 20260903123128 | 78 | 213 | 0.0 | 3.0 | 0.00 | 0.00 | 0.00 | 88 | 1015.5 |
| 20260903122622 | 78 | 212 | 0.0 | 3.0 | 0.00 | 0.00 | 0.00 | 88 | 1015.5 |
| 20260903122116 | 78 | 212 | 1.0 | 3.0 | 0.00 | 0.00 | 0.00 | 88 | 1015.4 |
| 20260903121609 | 78 | 212 | 1.0 | 4.0 | 0.00 | 0.00 | 0.00 | 88 | 1015.3 |
| 20260903121104 | 78 | 212 | 1.0 | 4.0 | 0.00 | 0.00 | 0.00 | 88 | 1015.3 |
| 20260903120558 | 78 | 211 | 1.0 | 3.0 | 0.00 | 0.00 | 0.00 | 88 | 1015.3 |
| 20260903115546 | 78 | 212 | 0.0 | 5.0 | 0.00 | 0.00 | 0.00 | 87 | 1015.2 |
| 20260903114538 | 78 | 212 | 1.0 | 4.0 | 0.00 | 0.00 | 0.00 | 87 | 1015.3 |
| 20260903114038 | 78 | 214 | 1.0 | 4.0 | 0.00 | 0.00 | 0.00 | 87 | 1015.2 |
| 20260903113537 | 78 | 213 | 1.0 | 4.0 | 0.00 | 0.00 | 0.00 | 87 | 1015.2 |
| 20260903113034 | 78 | 213 | 1.0 | 4.0 | 0.00 | 0.00 | 0.00 | 87 | 1015.2 |
| 20260903112807 | 79 | 213 | 1.0 | 4.0 | 0.00 | 0.00 | 0.00 | 87 | 1015.3 |
| 20260903112034 | 79 | 213 | 1.0 | 4.0 | 0.00 | 0.00 | 0.00 | 86 | 1015.2 |
| 20260903111532 | 79 | 197 | 1.0 | 6.0 | 0.00 | 0.00 | 0.00 | 86 | 1015.2 |
| 20260903111030 | 79 | 221 | 2.0 | 7.0 | 0.00 | 0.00 | 0.00 | 86 | 1015.2 |
| 20260903110530 | 79 | 240 | 2.0 | 7.0 | 0.00 | 0.00 | 0.00 | 86 | 1015.2 |
| 20260903110029 | 79 | 281 | 2.0 | 7.0 | 0.00 | 0.00 | 0.00 | 86 | 1015.2 |
| 20260903105528 | 79 | 215 | 2.0 | 7.0 | 0.00 | 0.00 | 0.00 | 86 | 1015.3 |
| 20260903105259 | 79 | 235 | 2.0 | 7.0 | 0.00 | 0.00 | 0.00 | 86 | 1015.3 |
| 20260903104526 | 79 | 232 | 2.0 | 7.0 | 0.00 | 0.00 | 0.00 | 85 | 1015.3 |
| 20260903104026 | 79 | 210 | 1.0 | 6.0 | 0.00 | 0.00 | 0.00 | 85 | 1015.2 |
| 20260903103755 | 79 | 232 | 1.0 | 5.0 | 0.00 | 0.00 | 0.00 | 86 | 1015.2 |
| 20260903103026 | 79 | 234 | 1.0 | 5.0 | 0.00 | 0.00 | 0.00 | 86 | 1015.3 |
| 20260903102758 | 79 | 208 | 1.0 | 3.0 | 0.00 | 0.00 | 0.00 | 86 | 1015.3 |
| 20260903102027 | 79 | 209 | 1.0 | 4.0 | 0.00 | 0.00 | 0.00 | 86 | 1015.3 |
| 20260903101525 | 79 | 221 | 1.0 | 4.0 | 0.00 | 0.00 | 0.00 | 86 | 1015.3 |
| 20260903101025 | 79 | 226 | 1.0 | 3.0 | 0.00 | 0.00 | 0.00 | 86 | 1015.2 |
| 20260903100522 | 79 | 226 | 1.0 | 8.0 | 0.00 | 0.00 | 0.00 | 86 | 1015.2 |
| 20260903100022 | 79 | 226 | 1.0 | 8.0 | 0.00 | 0.00 | 0.00 | 86 | 1015.2 |
| 20260903095753 | 79 | 236 | 1.0 | 7.0 | 0.00 | 0.00 | 0.00 | 86 | 1014.9 |
| 20260903095022 | 79 | 163 | 1.0 | 5.0 | 0.00 | 0.00 | 0.00 | 86 | 1014.9 |
| 20260903094522 | 79 | 161 | 1.0 | 5.0 | 0.00 | 0.00 | 0.00 | 86 | 1015.0 |
| 20260903094022 | 79 | 159 | 2.0 | 8.0 | 0.00 | 0.00 | 0.00 | 86 | 1015.2 |
| 20260903093522 | 79 | 159 | 3.0 | 8.0 | 0.00 | 0.00 | 0.00 | 86 | 1015.2 |
| 20260903093022 | 79 | 176 | 2.0 | 8.0 | 0.00 | 0.00 | 0.00 | 86 | 1015.2 |
| 20260903092522 | 79 | 159 | 2.0 | 7.0 | 0.00 | 0.00 | 0.00 | 86 | 1015.2 |
| 20260903092022 | 79 | 190 | 2.0 | 7.0 | 0.00 | 0.00 | 0.00 | 86 | 1015.3 |
| 20260903091522 | 79 | 171 | 2.0 | 7.0 | 0.00 | 0.00 | 0.00 | 86 | 1015.2 |
| 20260903091252 | 79 | 193 | 1.0 | 4.0 | 0.00 | 0.00 | 0.00 | 86 | 1015.2 |
| 20260903090522 | 79 | 190 | 2.0 | 6.0 | 0.00 | 0.00 | 0.00 | 86 | 1015.0 |
| 20260903090022 | 79 | 165 | 2.0 | 8.0 | 0.00 | 0.00 | 0.00 | 86 | 1015.2 |
| 20260903085521 | 79 | 171 | 2.0 | 8.0 | 0.00 | 0.00 | 0.00 | 86 | 1015.2 |
| 20260903085015 | 79 | 200 | 2.0 | 6.0 | 0.00 | 0.00 | 0.00 | 86 | 1015.2 |
| 20260903084512 | 79 | 171 | 2.0 | 6.0 | 0.00 | 0.00 | 0.00 | 86 | 1015.3 |
| 20260903084012 | 79 | 172 | 2.0 | 3.0 | 0.00 | 0.00 | 0.00 | 85 | 1015.2 |
| 20260903083512 | 79 | 174 | 1.0 | 6.0 | 0.00 | 0.00 | 0.00 | 85 | 1015.2 |
| 20260903083012 | 80 | 178 | 1.0 | 6.0 | 0.00 | 0.00 | 0.00 | 84 | 1015.2 |
| 20260903081511 | 80 | 169 | 1.0 | 5.0 | 0.00 | 0.00 | 0.00 | 84 | 1015.2 |
| 20260903081007 | 80 | 170 | 2.0 | 7.0 | 0.00 | 0.00 | 0.00 | 83 | 1015.2 |
| 20260903080505 | 80 | 171 | 2.0 | 7.0 | 0.00 | 0.00 | 0.00 | 83 | 1015.2 |
| 20260903080004 | 80 | 150 | 3.0 | 9.0 | 0.00 | 0.00 | 0.00 | 83 | 1015.2 |
| 20260903075503 | 80 | 153 | 2.0 | 9.0 | 0.00 | 0.00 | 0.00 | 82 | 1014.9 |
| 20260903075004 | 80 | 167 | 1.0 | 8.0 | 0.00 | 0.00 | 0.00 | 81 | 1014.9 |
| 20260903074503 | 80 | 173 | 1.0 | 6.0 | 0.00 | 0.00 | 0.00 | 81 | 1014.9 |
| 20260903074004 | 80 | 234 | 1.0 | 6.0 | 0.00 | 0.00 | 0.00 | 80 | 1015.0 |
| 20260903073502 | 81 | 222 | 1.0 | 4.0 | 0.00 | 0.00 | 0.00 | 79 | 1015.0 |
| 20260903073233 | 81 | 225 | 0.0 | 4.0 | 0.00 | 0.00 | 0.00 | 79 | 1015.3 |
| 20260903072501 | 81 | 225 | 1.0 | 4.0 | 0.00 | 0.00 | 0.00 | 78 | 1015.2 |
| 20260903071959 | 81 | 225 | 2.0 | 9.0 | 0.00 | 0.00 | 0.00 | 78 | 1015.2 |
| 20260903071502 | 81 | 209 | 2.0 | 9.0 | 0.00 | 0.00 | 0.00 | 78 | 1015.2 |
| 20260903070955 | 81 | 178 | 1.0 | 6.0 | 0.00 | 0.00 | 0.00 | 78 | 1015.3 |
| 20260903070449 | 81 | 168 | 1.0 | 6.0 | 0.00 | 0.00 | 0.00 | 78 | 1015.3 |
| 20260903065944 | 81 | 171 | 2.0 | 5.0 | 0.00 | 0.00 | 0.00 | 78 | 1015.4 |
| 20260903065438 | 81 | 171 | 2.0 | 9.0 | 0.00 | 0.00 | 0.00 | 77 | 1015.5 |
| 20260903064932 | 81 | 171 | 3.0 | 9.0 | 0.00 | 0.00 | 0.00 | 77 | 1015.5 |
| 20260903064426 | 82 | 156 | 2.0 | 8.0 | 0.00 | 0.00 | 0.00 | 78 | 1015.5 |
| 20260903063919 | 82 | 165 | 1.0 | 6.0 | 0.00 | 0.00 | 0.00 | 78 | 1015.4 |
| 20260903063414 | 82 | 165 | 1.0 | 4.0 | 0.00 | 0.00 | 0.00 | 77 | 1015.5 |
| 20260903062913 | 82 | 165 | 2.0 | 6.0 | 0.00 | 0.00 | 0.00 | 77 | 1015.5 |
| 20260903062402 | 82 | 165 | 2.0 | 11.0 | 0.00 | 0.00 | 0.00 | 76 | 1015.5 |
| 20260903061856 | 82 | 178 | 2.0 | 11.0 | 0.00 | 0.00 | 0.00 | 76 | 1015.5 |
| 20260903061350 | 83 | 171 | 2.0 | 10.0 | 0.00 | 0.00 | 0.00 | 76 | 1015.4 |
| 20260903060843 | 83 | 178 | 3.0 | 9.0 | 0.00 | 0.00 | 0.00 | 76 | 1015.4 |
| 20260903060338 | 83 | 185 | 3.0 | 9.0 | 0.00 | 0.00 | 0.00 | 75 | 1015.4 |
| 20260903055326 | 83 | 159 | 2.0 | 7.0 | 0.00 | 0.00 | 0.00 | 74 | 1015.3 |
| 20260903054819 | 83 | 158 | 2.0 | 7.0 | 0.00 | 0.00 | 0.00 | 74 | 1015.3 |
| 20260903054313 | 83 | 163 | 2.0 | 7.0 | 0.00 | 0.00 | 0.00 | 73 | 1015.3 |
| 20260903053807 | 83 | 156 | 2.0 | 6.0 | 0.00 | 0.00 | 0.00 | 73 | 1015.3 |
| 20260903053302 | 84 | 155 | 2.0 | 6.0 | 0.00 | 0.00 | 0.00 | 73 | 1015.3 |
| 20260903052756 | 84 | 157 | 2.0 | 6.0 | 0.00 | 0.00 | 0.00 | 72 | 1015.4 |
| 20260903052250 | 84 | 161 | 2.0 | 6.0 | 0.00 | 0.00 | 0.00 | 71 | 1015.3 |
| 20260903052014 | 84 | 162 | 2.0 | 6.0 | 0.00 | 0.00 | 0.00 | 70 | 1015.3 |
| 20260903051239 | 85 | 159 | 2.0 | 6.0 | 0.00 | 0.00 | 0.00 | 69 | 1015.3 |
| 20260903050732 | 85 | 159 | 1.0 | 6.0 | 0.00 | 0.00 | 0.00 | 68 | 1015.2 |
| 20260903050229 | 85 | 159 | 1.0 | 7.0 | 0.00 | 0.00 | 0.00 | 67 | 1015.2 |
| 20260903045729 | 85 | 160 | 2.0 | 7.0 | 0.00 | 0.00 | 0.00 | 66 | 1015.0 |
| 20260903045227 | 86 | 149 | 2.0 | 7.0 | 0.00 | 0.00 | 0.00 | 65 | 1015.2 |
| 20260903044725 | 86 | 181 | 3.0 | 11.0 | 0.00 | 0.00 | 0.00 | 64 | 1015.2 |
| 20260903044224 | 86 | 175 | 3.0 | 11.0 | 0.00 | 0.00 | 0.00 | 64 | 1015.2 |
| 20260903043724 | 86 | 178 | 3.0 | 9.0 | 0.00 | 0.00 | 0.00 | 63 | 1015.0 |
| 20260903043223 | 87 | 207 | 3.0 | 11.0 | 0.00 | 0.00 | 0.00 | 63 | 1014.9 |
| 20260903042723 | 87 | 150 | 4.0 | 11.0 | 0.00 | 0.00 | 0.00 | 62 | 1015.0 |
| 20260903042220 | 87 | 184 | 3.0 | 11.0 | 0.00 | 0.00 | 0.00 | 62 | 1015.0 |
| 20260903041723 | 87 | 189 | 3.0 | 9.0 | 0.00 | 0.00 | 0.00 | 62 | 1014.8 |
| 20260903041456 | 87 | 227 | 2.0 | 8.0 | 0.00 | 0.00 | 0.00 | 62 | 1014.8 |
| 20260903040716 | 87 | 184 | 3.0 | 9.0 | 0.00 | 0.00 | 0.00 | 63 | 1014.8 |
| 20260903040218 | 88 | 122 | 4.0 | 11.0 | 0.00 | 0.00 | 0.00 | 65 | 1014.7 |
| 20260903035716 | 88 | 175 | 3.0 | 11.0 | 0.00 | 0.00 | 0.00 | 64 | 1014.7 |
| 20260903035216 | 88 | 166 | 2.0 | 10.0 | 0.00 | 0.00 | 0.00 | 64 | 1014.6 |
| 20260903034717 | 88 | 167 | 3.0 | 10.0 | 0.00 | 0.00 | 0.00 | 64 | 1014.5 |
| 20260903033715 | 88 | 188 | 2.0 | 8.0 | 0.00 | 0.00 | 0.00 | 63 | 1014.3 |
| 20260903033210 | 87 | 167 | 3.0 | 9.0 | 0.00 | 0.00 | 0.00 | 63 | 1014.3 |
| 20260903032704 | 87 | 165 | 2.0 | 9.0 | 0.00 | 0.00 | 0.00 | 61 | 1014.3 |
| 20260903032158 | 87 | 169 | 2.0 | 9.0 | 0.00 | 0.00 | 0.00 | 58 | 1014.2 |
| 20260903031652 | 87 | 147 | 2.0 | 10.0 | 0.00 | 0.00 | 0.00 | 57 | 1014.0 |
| 20260903031147 | 86 | 138 | 1.0 | 10.0 | 0.00 | 0.00 | 0.00 | 57 | 1014.0 |
| 20260903030640 | 86 | 156 | 0.0 | 0.0 | 0.00 | 0.00 | 0.00 | 57 | 1013.7 |
| 20260903030405 | 86 | 156 | 0.0 | 0.0 | 0.00 | 0.00 | 0.00 | 56 | 1013.6 |
| 20260903025628 | 86 | 156 | 0.0 | 1.0 | 0.00 | 0.00 | 0.00 | 56 | 1013.6 |
| 20260903025122 | 86 | 156 | 0.0 | 1.0 | 0.00 | 0.00 | 0.00 | 56 | 1013.5 |
| 20260903024616 | 86 | 156 | 0.0 | 0.0 | 0.00 | 0.00 | 0.00 | 56 | 1013.4 |
| 20260903024110 | 87 | 156 | 0.0 | 0.0 | 0.00 | 0.00 | 0.00 | 56 | 1013.3 |
| 20260903023604 | 87 | 156 | 0.0 | 0.0 | 0.00 | 0.00 | 0.00 | 55 | 1013.3 |
| 20260903023058 | 87 | 156 | 0.0 | 0.0 | 0.00 | 0.00 | 0.00 | 54 | 1013.2 |
| 20260903022824 | 87 | 156 | 0.0 | 1.0 | 0.00 | 0.00 | 0.00 | 55 | 1013.2 |
| 20260903022316 | 88 | 156 | 0.0 | 1.0 | 0.00 | 0.00 | 0.00 | 54 | 1013.2 |
| 20260903021540 | 88 | 156 | 0.0 | 0.0 | 0.00 | 0.00 | 0.00 | 53 | 1013.2 |
| 20260903020534 | 89 | 156 | 0.0 | 2.0 | 0.00 | 0.00 | 0.00 | 51 | 1013.0 |
| 20260903020034 | 89 | 156 | 0.0 | 2.0 | 0.00 | 0.00 | 0.00 | 51 | 1013.0 |
| 20260903015534 | 90 | 156 | 0.0 | 0.0 | 0.00 | 0.00 | 0.00 | 51 | 1013.0 |
| 20260903015035 | 90 | 156 | 0.0 | 0.0 | 0.00 | 0.00 | 0.00 | 50 | 1012.8 |
| 20260903014802 | 91 | 156 | 0.0 | 0.0 | 0.00 | 0.00 | 0.00 | 50 | 1012.8 |
| 20260903014032 | 91 | 155 | 0.0 | 0.0 | 0.00 | 0.00 | 0.00 | 48 | 1012.8 |
| 20260903013532 | 91 | 155 | 0.0 | 0.0 | 0.00 | 0.00 | 0.00 | 47 | 1012.7 |
| 20260903013032 | 92 | 155 | 0.0 | 1.0 | 0.00 | 0.00 | 0.00 | 47 | 1012.7 |
| 20260903012530 | 92 | 155 | 0.0 | 1.0 | 0.00 | 0.00 | 0.00 | 47 | 1012.7 |
| 20260903012028 | 92 | 155 | 0.0 | 0.0 | 0.00 | 0.00 | 0.00 | 46 | 1012.6 |
| 20260903011526 | 93 | 155 | 0.0 | 1.0 | 0.00 | 0.00 | 0.00 | 46 | 1012.6 |
| 20260903011024 | 93 | 155 | 0.0 | 1.0 | 0.00 | 0.00 | 0.00 | 46 | 1012.7 |
| 20260903010522 | 93 | 155 | 0.0 | 0.0 | 0.00 | 0.00 | 0.00 | 46 | 1012.6 |
| 20260903010020 | 94 | 155 | 0.0 | 1.0 | 0.00 | 0.00 | 0.00 | 45 | 1012.6 |
| 20260903005749 | 94 | 155 | 0.0 | 1.0 | 0.00 | 0.00 | 0.00 | 44 | 1012.6 |
| 20260903005016 | 94 | 155 | 0.0 | 2.0 | 0.00 | 0.00 | 0.00 | 44 | 1012.7 |
| 20260903004514 | 94 | 155 | 0.0 | 2.0 | 0.00 | 0.00 | 0.00 | 44 | 1012.7 |
| 20260903004014 | 94 | 155 | 0.0 | 3.0 | 0.00 | 0.00 | 0.00 | 44 | 1012.7 |
| 20260903003516 | 95 | 155 | 0.0 | 3.0 | 0.00 | 0.00 | 0.00 | 43 | 1012.7 |
| 20260903003016 | 95 | 155 | 0.0 | 2.0 | 0.00 | 0.00 | 0.00 | 43 | 1012.7 |
| 20260903002508 | 95 | 155 | 1.0 | 3.0 | 0.00 | 0.00 | 0.00 | 43 | 1012.7 |
| 20260903002002 | 96 | 155 | 1.0 | 5.0 | 0.00 | 0.00 | 0.00 | 42 | 1012.6 |
| 20260903001456 | 96 | 155 | 1.0 | 5.0 | 0.00 | 0.00 | 0.00 | 41 | 1012.7 |
| 20260903000952 | 96 | 155 | 1.0 | 5.0 | 0.00 | 0.00 | 0.00 | 40 | 1012.8 |
| 20260903000454 | 97 | 155 | 1.0 | 5.0 | 0.00 | 0.00 | 0.00 | 39 | 1012.7 |
| 20260902235953 | 97 | 155 | 1.0 | 5.0 | 0.00 | 0.00 | 0.00 | 39 | 1012.8 |
| 20260902235452 | 97 | 155 | 2.0 | 5.0 | 0.00 | 0.00 | 0.00 | 39 | 1012.8 |
| 20260902235223 | 98 | 155 | 1.0 | 5.0 | 0.00 | 0.00 | 0.00 | 38 | 1012.9 |
| 20260902234450 | 98 | 155 | 1.0 | 5.0 | 0.00 | 0.00 | 0.00 | 38 | 1012.9 |
| 20260902233950 | 98 | 155 | 1.0 | 5.0 | 0.00 | 0.00 | 0.00 | 38 | 1012.9 |
| 20260902233450 | 98 | 154 | 1.0 | 5.0 | 0.00 | 0.00 | 0.00 | 38 | 1012.9 |
| 20260902232950 | 98 | 211 | 1.0 | 4.0 | 0.00 | 0.00 | 0.00 | 37 | 1013.0 |
| 20260902232450 | 98 | 123 | 1.0 | 3.0 | 0.00 | 0.00 | 0.00 | 38 | 1013.0 |
| 20260902231946 | 98 | 123 | 2.0 | 4.0 | 0.00 | 0.00 | 0.00 | 38 | 1012.9 |
| 20260902231446 | 98 | 121 | 2.0 | 7.0 | 0.00 | 0.00 | 0.00 | 38 | 1012.9 |
| 20260902231217 | 99 | 126 | 2.0 | 7.0 | 0.00 | 0.00 | 0.00 | 37 | 1012.9 |
| 20260902230446 | 99 | 246 | 2.0 | 7.0 | 0.00 | 0.00 | 0.00 | 38 | 1012.9 |
| 20260902225946 | 99 | 125 | 1.0 | 4.0 | 0.00 | 0.00 | 0.00 | 38 | 1012.9 |
| 20260902225449 | 99 | 117 | 1.0 | 4.0 | 0.00 | 0.00 | 0.00 | 37 | 1013.0 |
| 20260902225219 | 99 | 114 | 1.0 | 5.0 | 0.00 | 0.00 | 0.00 | 38 | 1013.0 |
| 20260902224449 | 99 | 145 | 2.0 | 5.0 | 0.00 | 0.00 | 0.00 | 38 | 1013.0 |
| 20260902223948 | 99 | 118 | 1.0 | 5.0 | 0.00 | 0.00 | 0.00 | 38 | 1013.0 |
| 20260902223444 | 99 | 136 | 1.0 | 8.0 | 0.00 | 0.00 | 0.00 | 38 | 1012.9 |
| 20260902222942 | 99 | 179 | 2.0 | 8.0 | 0.00 | 0.00 | 0.00 | 38 | 1013.0 |
| 20260902221942 | 100 | 115 | 2.0 | 6.0 | 0.00 | 0.00 | 0.00 | 39 | 1013.0 |
| 20260902221442 | 100 | 257 | 2.0 | 6.0 | 0.00 | 0.00 | 0.00 | 37 | 1013.1 |
| 20260902220944 | 100 | 166 | 2.0 | 6.0 | 0.00 | 0.00 | 0.00 | 38 | 1013.2 |
| 20260902220437 | 100 | 177 | 1.0 | 6.0 | 0.00 | 0.00 | 0.00 | 39 | 1013.2 |
| 20260902215936 | 100 | 187 | 1.0 | 3.0 | 0.00 | 0.00 | 0.00 | 39 | 1013.2 |
| 20260902215436 | 100 | 188 | 2.0 | 7.0 | 0.00 | 0.00 | 0.00 | 39 | 1013.3 |
| 20260902215206 | 100 | 184 | 2.0 | 7.0 | 0.00 | 0.00 | 0.00 | 39 | 1013.2 |
| 20260902214438 | 99 | 138 | 2.0 | 5.0 | 0.00 | 0.00 | 0.00 | 39 | 1013.3 |
| 20260902213935 | 100 | 198 | 2.0 | 7.0 | 0.00 | 0.00 | 0.00 | 39 | 1013.3 |
| 20260902213434 | 100 | 171 | 2.0 | 7.0 | 0.00 | 0.00 | 0.00 | 39 | 1013.3 |